Epoch 2019 Nov. 13.0 TT = JDT 2458800.5
T 2019 Oct. 26.20432 TT Williams
q 1.4192100 (2000.0) P Q
n 0.14779703 Peri. 133.61620 +0.94059948 +0.32450144
a 3.5429002 Node 207.89825 -0.33883682 +0.91581710
e 0.5994214 Incl. 12.32250 +0.02149933 +0.23659639
P 6.67
From 301 observations 2006 Sept. 16-2019 July 8, mean residual 0".6.